CW8405 Weather Reports


time (UTC)temp
F
wind
direction
speed
knots
gust
knots
rain 1hr
in
rain 24hr
in
rain mn
in
humidity
%
barometer
mb
20260503220834 76 222 1.7 26.9 0.00 0.00 0.00 42 884.9
20260503215858 76 36 3.5 111.2 0.00 0.00 0.00 40 884.9
20260503214850 76 50 3.5 24.3 0.00 0.00 0.00 39 884.9
20260503213914 77 342 4.3 49.5 0.00 0.00 0.00 37 884.9
20260503212921 76 300 7.8 43.4 0.00 0.00 0.00 40 884.9
20260503211913 76 92 6.1 46.9 0.00 0.00 0.00 41 884.9
20260503210908 75 44 3.5 29.5 0.00 0.00 0.00 42 884.9
20260503204825 75 355 6.1 39.1 0.00 0.00 0.00 40 1012.8
20260503203810 75 300 2.6 11.3 0.00 0.00 0.00 42 1012.8
20260503202814 74 58 5.2 24.3 0.00 0.00 0.00 47 1012.8
20260503201815 74 267 1.7 17.4 0.00 0.00 0.00 48 1012.8
20260503200810 73 304 6.1 27.8 0.00 0.00 0.00 48 1012.8
20260503195750 72 48 6.1 43.4 0.00 0.00 0.00 50 1012.8
20260503194757 72 290 9.6 35.6 0.00 0.00 0.00 48 1012.8
20260503193730 72 41 6.1 38.2 0.00 0.00 0.00 50 1012.8
20260503192707 71 0 0.0 24.3 0.00 0.00 0.00 53 1012.8
20260503191653 71 294 0.0 7.8 0.00 0.00 0.00 54 1012.8
20260503190653 70 333 0.0 0.0 0.00 0.00 0.00 57 1012.8
20260503185620 71 278 2.6 95.6 0.00 0.00 0.00 52 1012.8
20260503184551 70 246 0.9 13.0 0.00 0.00 0.00 54 1012.8
20260503183601 70 225 3.5 20.9 0.00 0.00 0.00 56 1012.8
20260503181419 69 329 1.7 26.9 0.00 0.00 0.00 56 1012.8
20260503180430 68 313 0.0 0.9 0.00 0.00 0.00 60 1012.8
20260503174303 66 290 0.0 15.6 0.00 0.00 0.00 64 1012.8
20260503172058 65 325 0.0 22.6 0.00 0.00 0.00 64 1012.8
20260503171028 64 330 0.0 2.6 0.00 0.00 0.00 67 1012.8
20260503150518 59 28 0.9 0.0 0.00 0.00 0.00 77 1013.0
20260503131230 51 47 0.0 0.0 0.00 0.00 0.00 87 1012.6
20260503130158 50 47 0.0 0.0 0.00 0.00 0.00 87 1012.6
20260503120145 50 47 0.0 0.0 0.00 0.00 0.00 87 1012.7
20260503110109 50 47 0.0 0.0 0.00 0.00 0.00 86 1012.8
20260503080707 53 47 0.0 0.0 0.00 0.00 0.00 81 1013.0
20260503072622 53 47 0.0 0.0 0.00 0.00 0.00 80 1012.7
20260503070410 53 47 0.0 0.0 0.00 0.00 0.00 80 1012.6
20260503060138 55 47 0.0 0.0 0.00 0.00 0.00 77 1012.6
20260503054123 56 47 0.0 0.0 0.00 0.00 0.00 77 1012.5
20260503053135 56 47 0.0 0.0 0.00 0.00 0.00 76 1012.0
20260503052126 56 47 0.0 0.0 0.00 0.00 0.00 76 1012.4
20260503051107 55 47 0.0 0.0 0.00 0.00 0.00 79 1012.5
20260503050129 56 47 0.0 0.0 0.00 0.00 0.00 78 1012.5
20260503042825 59 47 0.0 0.0 0.00 0.00 0.00 69 1004.3
20260503040705 59 47 0.0 0.0 0.00 0.00 0.00 70 1011.4
20260503035720 60 47 0.0 0.0 0.00 0.00 0.00 68 1010.0
20260503032446 63 47 0.0 0.0 0.00 0.00 0.00 62 990.4
20260503031428 64 47 0.0 0.0 0.00 0.00 0.00 60 955.5
20260503030415 64 47 0.0 8.7 0.00 0.00 0.00 58 955.5
20260503025422 65 47 0.9 0.0 0.00 0.00 0.00 56 955.5
20260503023242 67 47 0.0 10.4 0.00 0.00 0.00 55 908.8
20260503022230 67 47 0.0 2.6 0.00 0.00 0.00 54 908.8
20260503021241 68 47 0.0 1.7 0.00 0.00 0.00 56 908.8
20260503020222 68 47 0.0 0.0 0.00 0.00 0.00 54 908.8
20260503012835 71 14 1.7 7.8 0.00 0.00 0.00 49 908.8
20260503011849 71 321 0.9 21.7 0.00 0.00 0.00 47 908.8
20260503005737 72 346 2.6 20.9 0.00 0.00 0.00 48 908.8
20260503004728 72 349 1.7 63.4 0.00 0.00 0.00 46 908.8
20260503003746 72 32 0.0 7.8 0.00 0.00 0.00 46 908.8
20260503002726 72 33 0.9 21.7 0.00 0.00 0.00 49 908.8
20260503001653 72 42 1.7 114.7 0.00 0.00 0.00 48 908.8
20260502232601 73 309 5.2 47.8 0.00 0.00 0.00 50 913.2
20260502230500 71 302 10.4 65.2 0.00 0.00 0.00 51 913.2
20260502225449 70 60 12.2 65.2 0.00 0.00 0.00 55 913.2